K4AVM-13 Weather Reports


time (UTC)temp
C
wind
direction
speed
KPH
gust
KPH
rain 1hr
cm
rain 24hr
cm
rain mn
cm
humidity
%
barometer
mb
20260905154431 28 1 1.6 3.2 0.00 0.00 0.00 76 1013.3
20260905153926 28 301 1.6 3.2 0.00 0.00 0.00 78 1013.3
20260905153423 28 26 1.6 6.4 0.00 0.00 0.00 78 1013.7
20260905152922 28 300 1.6 6.4 0.00 0.00 0.00 78 1013.5
20260905152422 28 283 0.0 1.6 0.00 0.00 0.00 78 1013.7
20260905151917 28 321 1.6 3.2 0.00 0.00 0.00 77 1013.6
20260905151412 28 38 1.6 9.7 0.00 0.00 0.00 78 1013.5
20260905150907 28 286 3.2 11.3 0.00 0.00 0.00 76 1013.7
20260905150407 29 266 0.0 4.8 0.00 0.00 0.00 78 1013.5
20260905145904 28 184 0.0 1.6 0.00 0.00 0.00 79 1013.6
20260905145358 28 343 1.6 11.3 0.00 0.00 0.00 78 1013.5
20260905144858 28 160 1.6 11.3 0.00 0.00 0.00 77 1013.6
20260905144353 28 81 0.0 4.8 0.00 0.00 0.00 79 1013.5
20260905143852 28 300 3.2 12.9 0.00 0.00 0.00 78 1013.6
20260905143346 28 180 3.2 6.4 0.00 0.00 0.00 79 1013.5
20260905142846 27 1 4.8 6.4 0.00 0.00 0.00 79 1013.7
20260905142344 27 20 1.6 3.2 0.00 0.00 0.00 80 1013.8
20260905141841 27 241 1.6 9.7 0.00 0.00 0.00 81 1013.8
20260905141336 27 7 8.0 9.7 0.00 0.00 0.00 81 1013.5
20260905140832 27 78 3.2 4.8 0.00 0.00 0.00 82 1013.5
20260905140332 26 276 3.2 6.4 0.00 0.00 0.00 83 1013.3
20260905135830 27 85 3.2 4.8 0.00 0.00 0.00 82 1013.2
20260905135326 27 268 1.6 1.6 0.00 0.00 0.00 84 1013.5
20260905134821 26 335 0.0 1.6 0.00 0.00 0.00 86 1013.3
20260905134314 26 259 0.0 1.6 0.00 0.00 0.00 87 1013.3
20260905133809 25 325 3.2 11.3 0.00 0.00 0.00 88 1013.3
20260905133305 24 37 1.6 4.8 0.00 0.00 0.00 99 1013.2
20260905132803 24 294 0.0 1.6 0.00 0.00 0.00 99 1013.1
20260905132259 23 130 0.0 3.2 0.00 0.00 0.00 99 1013.3
20260905131754 23 359 3.2 3.2 0.00 0.00 0.00 99 1013.4
20260905131249 22 281 0.0 3.2 0.00 0.00 0.00 99 1013.0
20260905130744 23 5 1.6 3.2 0.00 0.00 0.00 99 1012.9
20260905130243 22 328 0.0 3.2 0.00 0.00 0.00 99 1012.9
20260905125738 22 288 1.6 1.6 0.00 0.00 0.00 99 1013.0
20260905125233 22 274 0.0 3.2 0.00 0.00 0.00 99 1013.0
20260905124730 23 355 0.0 0.0 0.00 0.00 0.00 99 1013.2
20260905124226 22 261 0.0 0.0 0.00 0.00 0.00 99 1013.1
20260905123720 23 246 0.0 1.6 0.00 0.00 0.00 99 1013.2
20260905123218 22 245 0.0 1.6 0.00 0.00 0.00 99 1013.3
20260905122717 22 285 0.0 0.0 0.00 0.00 0.00 99 1013.3
20260905122211 22 241 0.0 1.6 0.00 0.00 0.00 99 1013.2
20260905121706 22 260 0.0 0.0 0.00 0.00 0.00 99 1013.2
20260905121203 22 337 1.6 1.6 0.00 0.00 0.00 99 1013.2
20260905120701 22 334 1.6 3.2 0.00 0.00 0.00 99 1013.2
20260905120156 22 272 0.0 1.6 0.00 0.00 0.00 99 1013.2
20260905115656 21 268 0.0 0.0 0.00 0.00 0.00 99 1013.4
20260905115151 21 267 0.0 0.0 0.00 0.00 0.00 99 1013.3
20260905114651 21 265 0.0 0.0 0.00 0.00 0.00 99 1013.2
20260905114149 21 265 0.0 0.0 0.00 0.00 0.00 99 1012.9
20260905113649 21 265 0.0 0.0 0.00 0.00 0.00 99 1013.0
20260905113145 21 265 0.0 0.0 0.00 0.00 0.00 99 1013.1
20260905112639 21 265 0.0 0.0 0.00 0.00 0.00 99 1013.0
20260905112135 20 253 0.0 0.0 0.00 0.00 0.00 99 1013.0
20260905111634 20 253 0.0 0.0 0.00 0.00 0.00 99 1013.0
20260905111134 20 249 0.0 0.0 0.00 0.00 0.00 99 1013.0
20260905110633 20 249 0.0 0.0 0.00 0.00 0.00 99 1013.0
20260905110128 20 249 0.0 0.0 0.00 0.00 0.00 99 1012.9
20260905105624 20 250 0.0 0.0 0.00 0.00 0.00 99 1013.0
20260905105122 20 251 0.0 0.0 0.00 0.00 0.00 99 1013.0
20260905104618 20 255 0.0 0.0 0.00 0.00 0.00 99 1012.8
20260905104113 20 258 0.0 0.0 0.00 0.00 0.00 99 1012.8
20260905103609 20 258 0.0 0.0 0.00 0.00 0.00 99 1012.8
20260905103104 20 258 0.0 0.0 0.00 0.00 0.00 99 1012.4
20260905102554 20 258 0.0 0.0 0.00 0.00 0.00 99 1012.5
20260905102051 20 258 0.0 0.0 0.00 0.00 0.00 99 1012.3
20260905101549 20 259 0.0 0.0 0.00 0.00 0.00 99 1012.4
20260905101047 20 254 0.0 0.0 0.00 0.00 0.00 99 1012.6
20260905100544 20 254 0.0 0.0 0.00 0.00 0.00 99 1012.3
20260905100043 21 250 0.0 0.0 0.00 0.00 0.00 99 1012.4
20260905095538 20 273 0.0 0.0 0.00 0.00 0.00 99 1012.5
20260905095033 20 273 0.0 0.0 0.00 0.00 0.00 99 1012.5
20260905094528 20 275 0.0 0.0 0.00 0.00 0.00 99 1012.3
20260905094027 20 276 0.0 0.0 0.00 0.00 0.00 99 1012.4
20260905093522 20 276 0.0 0.0 0.00 0.00 0.00 99 1012.3
20260905093019 20 277 0.0 0.0 0.00 0.00 0.00 99 1012.6
20260905092519 21 280 0.0 0.0 0.00 0.00 0.00 99 1012.3
20260905092015 21 263 0.0 0.0 0.00 0.00 0.00 99 1012.1
20260905091513 21 261 0.0 0.0 0.00 0.00 0.00 99 1012.1
20260905091008 21 265 0.0 0.0 0.00 0.00 0.00 99 1012.1
20260905090503 21 308 0.0 0.0 0.00 0.00 0.00 99 1012.3
20260905090002 21 261 0.0 0.0 0.00 0.00 0.00 99 1012.2
20260905085501 21 261 0.0 0.0 0.00 0.00 0.00 99 1012.3
20260905084957 21 270 0.0 0.0 0.00 0.00 0.00 99 1012.2
20260905084457 21 258 0.0 0.0 0.00 0.00 0.00 99 1012.3
20260905083952 21 258 0.0 0.0 0.00 0.00 0.00 99 1012.4
20260905083447 21 266 0.0 0.0 0.00 0.00 0.00 99 1012.2
20260905082943 21 255 0.0 0.0 0.00 0.00 0.00 99 1012.3
20260905082439 21 255 0.0 0.0 0.00 0.00 0.00 99 1012.2
20260905081934 21 260 0.0 0.0 0.00 0.00 0.00 99 1012.3
20260905081434 21 260 0.0 0.0 0.00 0.00 0.00 99 1012.3
20260905080932 21 269 0.0 0.0 0.00 0.00 0.00 99 1012.3
20260905080427 21 270 0.0 0.0 0.00 0.00 0.00 99 1012.3
20260905075926 21 257 0.0 0.0 0.00 0.00 0.00 99 1012.4
20260905075421 21 255 0.0 0.0 0.00 0.00 0.00 99 1012.4
20260905074920 21 248 0.0 0.0 0.00 0.00 0.00 99 1012.4
20260905074416 21 250 0.0 0.0 0.00 0.00 0.00 99 1012.7
20260905073911 21 259 0.0 0.0 0.00 0.00 0.00 99 1012.7
20260905073406 21 259 0.0 0.0 0.00 0.00 0.00 99 1012.7
20260905072902 21 269 0.0 0.0 0.00 0.00 0.00 99 1012.7
20260905072356 21 270 0.0 0.0 0.00 0.00 0.00 99 1012.7
20260905071852 21 270 0.0 0.0 0.00 0.00 0.00 99 1012.7
20260905071349 21 267 0.0 0.0 0.00 0.00 0.00 99 1012.7
20260905070843 21 266 0.0 0.0 0.00 0.00 0.00 99 1012.7
20260905070339 21 258 0.0 0.0 0.00 0.00 0.00 99 1012.7
20260905065838 21 257 0.0 0.0 0.00 0.00 0.00 99 1012.8
20260905065337 21 256 0.0 0.0 0.00 0.00 0.00 99 1013.1
20260905064832 21 259 0.0 0.0 0.00 0.00 0.00 99 1012.8
20260905064328 21 266 0.0 0.0 0.00 0.00 0.00 99 1012.9
20260905063826 21 250 0.0 0.0 0.00 0.00 0.00 99 1012.9
20260905063322 21 255 0.0 0.0 0.00 0.00 0.00 99 1013.2
20260905062819 21 248 0.0 0.0 0.00 0.00 0.00 99 1013.1
20260905062313 21 266 0.0 0.0 0.00 0.00 0.00 99 1013.1
20260905061808 21 272 0.0 0.0 0.00 0.00 0.00 99 1013.3
20260905061308 21 250 0.0 0.0 0.00 0.00 0.00 99 1013.2
20260905060802 21 258 0.0 0.0 0.00 0.00 0.00 99 1013.5
20260905060259 21 263 0.0 0.0 0.00 0.00 0.00 99 1013.4
20260905055757 21 263 0.0 0.0 0.00 0.00 0.00 99 1013.6
20260905055252 21 267 0.0 0.0 0.00 0.00 0.00 99 1013.6
20260905054747 21 256 0.0 0.0 0.00 0.00 0.00 99 1013.6
20260905054239 21 250 0.0 0.0 0.00 0.00 0.00 99 1013.7
20260905053737 21 248 0.0 0.0 0.00 0.00 0.00 99 1013.8
20260905053233 21 257 0.0 1.6 0.00 0.00 0.00 99 1013.9
20260905052732 21 253 0.0 0.0 0.00 0.00 0.00 99 1014.0
20260905052227 21 254 0.0 0.0 0.00 0.00 0.00 99 1014.2
20260905051726 21 263 0.0 0.0 0.00 0.00 0.00 99 1014.6
20260905051223 21 247 0.0 0.0 0.00 0.00 0.00 99 1014.4
20260905050720 21 256 0.0 0.0 0.00 0.00 0.00 99 1014.4
20260905050216 21 254 0.0 0.0 0.00 0.00 0.00 99 1014.5
20260905045715 21 259 0.0 0.0 0.00 0.00 0.00 99 1014.3
20260905045211 21 264 0.0 0.0 0.00 0.00 0.00 99 1014.7
20260905044706 21 266 0.0 0.0 0.00 0.00 0.00 99 1014.7
20260905044202 21 266 0.0 0.0 0.00 0.00 0.00 99 1014.8
20260905043700 21 266 0.0 0.0 0.00 0.00 0.00 99 1014.7
20260905043155 21 263 0.0 0.0 0.00 0.00 0.00 99 1014.8
20260905042654 22 256 0.0 0.0 0.00 0.00 0.00 99 1014.9
20260905042148 22 257 0.0 0.0 0.00 0.00 0.00 99 1014.9
20260905041644 22 254 0.0 0.0 0.00 0.00 0.00 99 1014.9
20260905041139 22 254 0.0 0.0 0.00 0.00 0.00 99 1015.0
20260905040634 22 250 0.0 0.0 0.00 0.00 0.00 99 1015.0
20260905040133 22 256 0.0 0.0 0.00 1.80 1.80 99 1014.9
20260905035628 22 250 0.0 0.0 0.00 1.80 1.80 99 1014.9
20260905035125 22 190 1.6 3.2 0.00 1.80 1.80 99 1014.9
20260905034620 22 254 0.0 1.6 0.00 1.80 1.80 99 1015.0
20260905034120 22 258 0.0 0.0 0.00 1.80 1.80 99 1015.2
20260905033614 22 245 0.0 0.0 0.00 1.80 1.80 99 1015.2
20260905033110 22 250 0.0 0.0 0.00 1.80 1.80 99 1015.1
20260905032609 22 261 0.0 0.0 0.00 1.80 1.80 99 1015.0
20260905032104 22 242 0.0 0.0 0.00 1.80 1.80 99 1015.1
20260905031600 22 264 0.0 0.0 0.00 1.80 1.80 99 1014.9
20260905031100 22 256 0.0 0.0 0.00 1.80 1.80 99 1014.8
20260905030555 22 259 0.0 0.0 0.00 1.80 1.80 99 1014.9
20260905030050 22 250 0.0 0.0 0.00 1.80 1.80 99 1014.8
20260905025545 22 255 0.0 0.0 0.00 1.80 1.80 99 1014.9
20260905025041 22 258 0.0 0.0 0.00 1.80 1.80 99 1015.0
20260905024536 22 267 0.0 0.0 0.00 1.80 1.80 99 1015.3
20260905024032 22 260 0.0 0.0 0.00 1.80 1.80 99 1015.2
20260905023527 22 243 0.0 1.6 0.00 1.80 1.80 99 1015.2
20260905023026 22 255 0.0 1.6 0.00 1.80 1.80 99 1015.1
20260905022521 22 256 0.0 0.0 0.00 1.80 1.80 99 1015.0
20260905022016 22 259 0.0 0.0 0.00 1.80 1.80 99 1015.0
20260905021516 22 250 0.0 0.0 0.00 1.80 1.80 99 1015.2
20260905021011 22 250 0.0 0.0 0.00 1.80 1.80 99 1015.4
20260905020511 22 258 0.0 0.0 0.00 1.80 1.80 99 1015.3
20260905020007 22 254 0.0 0.0 0.00 1.80 1.80 99 1014.9
20260905015504 22 250 0.0 0.0 0.00 1.80 1.80 99 1015.1
20260905015004 22 259 0.0 0.0 0.00 1.80 1.80 99 1015.0
20260905014459 22 250 0.0 0.0 0.00 1.80 1.80 99 1015.3
20260905013954 22 247 0.0 0.0 0.00 1.80 1.80 99 1015.2
20260905013450 22 255 0.0 0.0 0.00 1.80 1.80 99 1014.9
20260905012946 22 254 0.0 0.0 0.00 1.80 1.80 99 1014.6
20260905012440 22 254 0.0 0.0 0.00 1.80 1.80 99 1014.8
20260905011937 22 250 0.0 1.6 0.00 1.80 1.80 99 1014.6
20260905011433 22 247 0.0 0.0 0.00 1.80 1.80 99 1014.5
20260905010928 22 219 0.0 0.0 0.00 1.80 1.80 99 1014.4
20260905010423 22 247 0.0 0.0 0.00 1.80 1.80 99 1014.2
20260905005919 22 247 0.0 0.0 0.00 1.80 1.80 99 1014.2
20260905005415 22 250 0.0 0.0 0.00 1.80 1.80 99 1014.4
20260905004910 22 264 0.0 0.0 0.00 1.80 1.80 99 1014.0
20260905004410 22 117 3.2 3.2 0.00 1.80 1.80 99 1014.0
20260905003905 22 258 0.0 0.0 0.00 1.80 1.80 99 1014.2
20260905003400 22 259 0.0 0.0 0.00 1.80 1.80 99 1014.4
20260905002856 22 248 0.0 0.0 0.00 1.80 1.80 99 1013.7
20260905002350 22 256 0.0 0.0 0.00 1.80 1.80 99 1013.9
20260905001845 22 256 0.0 0.0 0.00 1.80 1.80 99 1013.8
20260905001344 22 260 0.0 0.0 0.00 1.80 1.80 99 1013.8
20260905000839 22 247 0.0 0.0 0.00 1.80 1.80 99 1013.9
20260905000335 22 219 0.0 1.6 0.00 1.80 1.80 99 1013.6
20260904235831 22 262 0.0 0.0 0.00 1.80 1.80 99 1013.5
20260904235326 22 343 1.6 1.6 0.00 1.80 1.80 99 1013.3
20260904234821 22 267 0.0 0.0 0.18 1.80 1.80 99 1013.5
20260904234321 22 239 0.0 1.6 0.18 1.80 1.80 99 1013.2
20260904233817 22 226 0.0 3.2 0.00 1.78 1.78 99 1013.4
20260904233313 22 198 0.0 1.6 0.00 1.78 1.78 99 1014.0
20260904232809 23 250 3.2 3.2 0.00 1.78 1.78 99 1014.3
20260904232307 23 210 0.0 0.0 0.00 1.78 1.78 99 1014.4
20260904231801 22 257 0.0 0.0 0.00 1.78 1.78 99 1014.5
20260904231255 23 227 0.0 0.0 0.00 1.78 1.78 99 1014.5
20260904230751 23 239 0.0 0.0 0.00 1.78 1.78 99 1014.8
20260904230249 22 246 0.0 1.6 0.00 1.78 1.78 99 1015.0
20260904225744 23 230 0.0 1.6 0.00 1.78 1.78 99 1015.0
20260904225238 22 244 0.0 0.0 0.00 1.78 1.78 99 1015.1
20260904224737 22 235 0.0 1.6 0.00 1.78 1.78 99 1015.1
20260904224233 22 244 0.0 1.6 0.00 1.78 1.78 99 1015.1
20260904223732 22 234 0.0 0.0 0.00 1.78 1.78 99 1015.5
20260904223227 22 259 0.0 0.0 0.00 1.78 1.78 99 1015.1
20260904222723 22 336 1.6 9.7 0.13 1.78 1.78 99 1015.2
20260904222218 22 296 1.6 1.6 0.43 1.78 1.78 99 1015.1
20260904221718 22 246 1.6 3.2 0.48 1.75 1.75 99 1015.2
20260904221213 22 237 0.0 3.2 0.18 1.70 1.70 99 1015.0
20260904220707 22 160 1.6 1.6 0.18 1.68 1.68 99 1015.0
20260904220202 22 140 1.6 6.4 0.79 1.68 1.68 99 1015.2
20260904215702 22 225 1.6 3.2 3.48 1.65 1.65 99 1015.1
20260904215158 22 4 3.2 4.8 4.27 1.45 1.45 99 1015.2
20260904214653 22 256 4.8 27.4 5.16 0.99 0.99 98 1015.8
20260904214148 23 168 4.8 30.6 4.27 0.71 0.71 96 1015.4
20260904213646 28 265 9.7 16.1 0.66 0.10 0.10 85 1014.2
20260904213143 32 252 1.6 1.6 0.00 0.00 0.00 69 1014.2
20260904212638 32 231 0.0 0.0 0.00 0.00 0.00 67 1013.3
20260904212133 33 231 0.0 0.0 0.00 0.00 0.00 64 1013.2
20260904211632 33 231 0.0 1.6 0.00 0.00 0.00 63 1013.0
20260904211127 33 297 0.0 1.6 0.00 0.00 0.00 61 1013.2
20260904210621 34 240 0.0 0.0 0.00 0.00 0.00 60 1013.1
20260904210117 34 229 0.0 1.6 0.00 0.00 0.00 58 1013.0
20260904205607 34 240 0.0 0.0 0.00 0.00 0.00 59 1013.1
20260904205103 34 298 0.0 1.6 0.00 0.00 0.00 58 1013.1
20260904204559 35 326 3.2 4.8 0.00 0.00 0.00 56 1013.0
20260904204055 35 227 0.0 3.2 0.00 0.00 0.00 55 1013.1
20260904203550 35 277 1.6 3.2 0.00 0.00 0.00 55 1012.9
20260904203047 35 66 1.6 1.6 0.00 0.00 0.00 59 1013.1
20260904202542 34 314 0.0 0.0 0.00 0.00 0.00 58 1013.0
20260904202038 35 271 0.0 1.6 0.00 0.00 0.00 57 1012.9
20260904201533 35 108 0.0 1.6 0.00 0.00 0.00 58 1012.8
20260904201028 35 172 0.0 1.6 0.00 0.00 0.00 57 1012.9
20260904200527 35 229 0.0 1.6 0.00 0.00 0.00 56 1013.1
20260904200023 35 227 0.0 1.6 0.00 0.00 0.00 56 1013.1
20260904195521 35 231 0.0 0.0 0.00 0.00 0.00 54 1013.4
20260904195020 35 30 0.0 3.2 0.00 0.00 0.00 54 1013.5
20260904194515 36 225 0.0 1.6 0.00 0.00 0.00 54 1013.6
20260904194010 36 224 0.0 1.6 0.00 0.00 0.00 52 1013.5
20260904193505 36 223 1.6 3.2 0.00 0.00 0.00 52 1013.6
20260904193002 36 235 0.0 3.2 0.00 0.00 0.00 55 1013.8
20260904192501 36 246 1.6 1.6 0.00 0.00 0.00 52 1013.6
20260904191957 36 219 3.2 3.2 0.00 0.00 0.00 53 1013.8
20260904191453 36 230 0.0 3.2 0.00 0.00 0.00 53 1013.9
20260904190950 36 236 0.0 4.8 0.00 0.00 0.00 52 1014.0
20260904190445 36 23 1.6 3.2 0.00 0.00 0.00 53 1014.2
20260904185941 36 233 3.2 3.2 0.00 0.00 0.00 53 1014.1
20260904185437 36 243 1.6 1.6 0.00 0.00 0.00 54 1014.3
20260904184936 36 208 1.6 3.2 0.00 0.00 0.00 53 1014.3
20260904184431 36 237 0.0 1.6 0.00 0.00 0.00 53 1014.4
20260904183927 36 8 3.2 4.8 0.00 0.00 0.00 52 1014.8
20260904183422 36 228 3.2 4.8 0.00 0.00 0.00 55 1014.6
20260904182917 36 200 0.0 1.6 0.00 0.00 0.00 55 1014.5
20260904182412 36 230 0.0 1.6 0.00 0.00 0.00 55 1014.9
20260904181907 36 205 1.6 3.2 0.00 0.00 0.00 57 1014.7
20260904181402 35 219 0.0 1.6 0.00 0.00 0.00 57 1014.8
20260904180857 35 229 0.0 1.6 0.00 0.00 0.00 55 1014.8
20260904180353 36 228 1.6 1.6 0.00 0.00 0.00 56 1014.8
20260904175852 35 235 0.0 1.6 0.00 0.00 0.00 58 1015.0
20260904175350 35 239 1.6 3.2 0.00 0.00 0.00 59 1015.3
20260904174844 35 241 0.0 1.6 0.00 0.00 0.00 56 1015.1
20260904174341 37 310 0.0 1.6 0.00 0.00 0.00 55 1015.3
20260904173837 36 178 0.0 1.6 0.00 0.00 0.00 58 1015.3
20260904173332 35 198 1.6 3.2 0.00 0.00 0.00 57 1015.4
20260904172828 35 215 0.0 1.6 0.00 0.00 0.00 59 1015.4
20260904172327 35 235 1.6 4.8 0.00 0.00 0.00 60 1015.3
20260904171822 35 324 0.0 1.6 0.00 0.00 0.00 59 1015.3
20260904171317 35 288 3.2 4.8 0.00 0.00 0.00 59 1015.5
20260904170814 36 231 0.0 3.2 0.00 0.00 0.00 56 1015.4
20260904170309 35 227 0.0 1.6 0.00 0.00 0.00 58 1015.3
20260904165808 35 255 0.0 0.0 0.00 0.00 0.00 58 1015.4
20260904165305 35 237 1.6 3.2 0.00 0.00 0.00 60 1015.3
20260904164756 35 215 0.0 1.6 0.00 0.00 0.00 60 1015.4
20260904164252 34 153 1.6 3.2 0.00 0.00 0.00 59 1015.4
20260904163748 35 239 1.6 4.8 0.00 0.00 0.00 61 1015.6
20260904163243 35 251 1.6 6.4 0.00 0.00 0.00 59 1015.7
20260904162742 34 339 3.2 4.8 0.00 0.00 0.00 60 1015.6
20260904162237 35 191 1.6 4.8 0.00 0.00 0.00 62 1015.7
20260904161733 34 99 3.2 4.8 0.00 0.00 0.00 60 1015.7
20260904161232 35 258 3.2 4.8 0.00 0.00 0.00 62 1015.7
20260904160728 34 207 1.6 3.2 0.00 0.00 0.00 60 1015.8
20260904160224 34 245 0.0 6.4 0.00 0.00 0.00 60 1016.1
20260904155724 35 355 6.4 9.7 0.00 0.00 0.00 59 1015.9
20260904155223 34 4 3.2 3.2 0.00 0.00 0.00 60 1015.9